GW5456 Weather Reports


time (UTC)temp
C
wind
direction
speed
KPH
gust
KPH
rain 1hr
cm
rain 24hr
cm
rain mn
cm
humidity
%
barometer
mb
20260906131648 26 124 0.0 0.0 0.00 0.00 0.00 95 1013.0
20260906131142 26 177 0.0 0.0 0.00 0.00 0.00 97 1012.8
20260906130638 25 182 0.0 1.6 0.00 0.00 0.00 98 1012.9
20260906130133 25 139 0.0 1.6 0.00 0.00 0.00 98 1012.8
20260906125631 25 114 1.6 1.6 0.00 0.00 0.00 98 1012.8
20260906125129 25 161 0.0 0.0 0.00 0.00 0.00 98 1012.8
20260906124625 25 165 0.0 1.6 0.00 0.00 0.00 98 1012.8
20260906124120 25 130 0.0 0.0 0.00 0.00 0.00 98 1012.7
20260906123620 25 130 0.0 0.0 0.00 0.00 0.00 98 1012.7
20260906123115 25 130 0.0 0.0 0.00 0.00 0.00 98 1012.9
20260906122614 24 130 0.0 0.0 0.00 0.00 0.00 98 1012.6
20260906122110 24 130 0.0 0.0 0.00 0.00 0.00 98 1012.7
20260906121606 24 130 0.0 0.0 0.00 0.00 0.00 98 1012.6
20260906121102 24 130 0.0 0.0 0.00 0.00 0.00 98 1012.4
20260906120557 24 130 0.0 0.0 0.00 0.00 0.00 98 1012.6
20260906120055 24 130 0.0 0.0 0.00 0.00 0.00 98 1012.7
20260906115554 24 130 0.0 0.0 0.00 0.00 0.00 98 1012.3
20260906115050 24 130 0.0 0.0 0.00 0.00 0.00 98 1012.2
20260906114543 24 130 0.0 0.0 0.00 0.00 0.00 98 1012.0
20260906114039 24 130 0.0 0.0 0.00 0.00 0.00 98 1012.1
20260906113538 24 130 0.0 0.0 0.00 0.00 0.00 98 1012.1
20260906113033 24 130 0.0 0.0 0.00 0.00 0.00 98 1012.1
20260906112528 24 130 0.0 0.0 0.00 0.00 0.00 98 1012.0
20260906112025 24 130 0.0 0.0 0.00 0.00 0.00 98 1012.2
20260906111524 24 130 0.0 0.0 0.00 0.00 0.00 98 1012.0
20260906111020 24 130 0.0 0.0 0.00 0.00 0.00 98 1012.0
20260906110519 24 130 0.0 0.0 0.00 0.00 0.00 98 1012.1
20260906110019 24 130 0.0 0.0 0.00 0.00 0.00 98 1012.1
20260906105514 24 130 0.0 0.0 0.00 0.00 0.00 98 1011.9
20260906105010 24 130 0.0 0.0 0.00 0.00 0.00 98 1011.9
20260906104508 24 130 0.0 0.0 0.00 0.00 0.00 98 1011.8
20260906104003 24 130 0.0 0.0 0.00 0.00 0.00 98 1011.8
20260906103501 24 130 0.0 0.0 0.00 0.00 0.00 98 1012.0
20260906102956 24 130 0.0 0.0 0.00 0.00 0.00 98 1011.9
20260906102457 24 130 0.0 0.0 0.00 0.00 0.00 98 1011.6
20260906101956 24 130 0.0 0.0 0.00 0.00 0.00 98 1011.7
20260906101452 24 130 0.0 0.0 0.00 0.00 0.00 98 1011.7
20260906100947 24 130 0.0 0.0 0.00 0.00 0.00 98 1011.6
20260906100442 24 130 0.0 0.0 0.00 0.00 0.00 97 1011.7
20260906095942 24 130 0.0 0.0 0.00 0.00 0.00 97 1011.7
20260906095437 24 130 0.0 0.0 0.00 0.00 0.00 97 1011.5
20260906094932 24 130 0.0 0.0 0.00 0.00 0.00 97 1011.5
20260906094426 24 130 0.0 0.0 0.00 0.00 0.00 97 1011.7
20260906093922 24 130 0.0 0.0 0.00 0.00 0.00 97 1011.5
20260906093419 24 130 0.0 0.0 0.00 0.00 0.00 97 1011.6
20260906092919 24 130 0.0 0.0 0.00 0.00 0.00 97 1011.4
20260906092418 24 130 0.0 0.0 0.00 0.00 0.00 97 1011.5
20260906091914 24 130 0.0 0.0 0.00 0.00 0.00 97 1011.4
20260906091409 24 130 0.0 0.0 0.00 0.00 0.00 97 1011.5
20260906090906 24 130 0.0 0.0 0.00 0.00 0.00 97 1011.5
20260906090405 24 130 0.0 0.0 0.00 0.00 0.00 97 1011.1
20260906085900 24 130 0.0 0.0 0.00 0.00 0.00 97 1011.2
20260906085359 24 130 0.0 0.0 0.00 0.00 0.00 97 1011.0
20260906084859 24 130 0.0 0.0 0.00 0.00 0.00 97 1011.1
20260906084354 24 130 0.0 0.0 0.00 0.00 0.00 97 1011.0
20260906083848 24 130 0.0 0.0 0.00 0.00 0.00 97 1011.1
20260906083344 24 130 0.0 0.0 0.00 0.00 0.00 97 1011.1
20260906082844 24 130 0.0 0.0 0.00 0.00 0.00 97 1011.2
20260906082344 25 130 0.0 0.0 0.00 0.00 0.00 96 1011.2
20260906081840 25 130 0.0 0.0 0.00 0.00 0.00 96 1011.1
20260906081336 24 130 0.0 0.0 0.00 0.00 0.00 96 1011.1
20260906080832 25 130 0.0 0.0 0.00 0.00 0.00 96 1011.3
20260906080328 25 130 0.0 0.0 0.00 0.00 0.00 96 1011.3
20260906075827 25 130 0.0 0.0 0.00 0.00 0.00 96 1011.3
20260906075327 25 130 0.0 0.0 0.00 0.00 0.00 96 1011.3
20260906074823 25 130 0.0 0.0 0.00 0.00 0.00 96 1011.3
20260906074322 25 130 0.0 0.0 0.00 0.00 0.00 96 1011.0
20260906073821 25 130 0.0 0.0 0.00 0.00 0.00 96 1010.9
20260906073321 25 130 0.0 0.0 0.00 0.00 0.00 96 1011.1
20260906072818 25 129 0.0 0.0 0.00 0.00 0.00 96 1011.0
20260906072314 25 130 0.0 0.0 0.00 0.00 0.00 96 1010.9
20260906071809 25 130 0.0 0.0 0.00 0.00 0.00 96 1011.2
20260906071304 25 130 0.0 0.0 0.00 0.00 0.00 96 1011.0
20260906070801 25 130 0.0 0.0 0.00 0.00 0.00 96 1011.1
20260906070256 25 130 0.0 0.0 0.00 0.00 0.00 96 1011.1
20260906065755 25 130 0.0 0.0 0.00 0.00 0.00 96 1010.9
20260906065251 25 130 0.0 0.0 0.00 0.00 0.00 95 1011.1
20260906064747 25 130 0.0 0.0 0.00 0.00 0.00 95 1011.1
20260906064242 25 130 0.0 0.0 0.00 0.00 0.00 95 1011.1
20260906063737 25 130 0.0 0.0 0.00 0.00 0.00 95 1011.0
20260906063233 25 130 0.0 0.0 0.00 0.00 0.00 95 1011.0
20260906062728 25 130 0.0 0.0 0.00 0.00 0.00 95 1011.1
20260906062227 25 130 0.0 0.0 0.00 0.00 0.00 95 1011.1
20260906061723 25 130 0.0 0.0 0.00 0.00 0.00 95 1011.3
20260906061219 25 130 0.0 0.0 0.00 0.00 0.00 95 1011.5
20260906060714 25 130 0.0 0.0 0.00 0.00 0.00 95 1011.5
20260906060212 25 129 0.0 0.0 0.00 0.00 0.00 95 1011.3
20260906055707 25 130 0.0 0.0 0.00 0.00 0.00 94 1011.5
20260906055202 25 130 0.0 0.0 0.00 0.00 0.00 94 1011.4
20260906054658 25 130 0.0 0.0 0.00 0.00 0.00 94 1011.4
20260906054158 25 130 0.0 0.0 0.00 0.00 0.00 94 1011.7
20260906053655 25 129 0.0 0.0 0.00 0.00 0.00 94 1011.8
20260906053150 25 130 0.0 0.0 0.00 0.00 0.00 94 1011.6
20260906052645 25 130 0.0 0.0 0.00 0.00 0.00 94 1011.5
20260906052141 25 130 0.0 0.0 0.00 0.00 0.00 94 1011.7
20260906051637 25 130 0.0 0.0 0.00 0.00 0.00 94 1011.7
20260906051137 25 130 0.0 0.0 0.00 0.00 0.00 94 1011.7
20260906050633 25 130 0.0 0.0 0.00 0.00 0.00 94 1011.8
20260906050128 25 130 0.0 0.0 0.00 0.00 0.00 94 1011.8
20260906045626 25 130 0.0 0.0 0.00 0.00 0.00 93 1011.9
20260906045121 25 130 0.0 0.0 0.00 0.00 0.00 93 1011.8
20260906044617 25 130 0.0 0.0 0.00 0.00 0.00 93 1012.0
20260906044113 25 130 0.0 0.0 0.00 0.00 0.00 93 1011.7
20260906043609 25 129 0.0 0.0 0.00 0.00 0.00 93 1011.9
20260906043104 25 129 0.0 0.0 0.00 0.00 0.00 92 1012.0
20260906042603 25 130 0.0 0.0 0.00 0.00 0.00 92 1012.1
20260906042058 25 130 0.0 0.0 0.00 0.00 0.00 92 1012.1
20260906041554 25 129 0.0 0.0 0.00 0.00 0.00 91 1012.1
20260906041048 25 130 0.0 0.0 0.00 0.00 0.00 90 1012.1
20260906040544 25 129 0.0 0.0 0.00 0.00 0.00 90 1012.1
20260906040039 26 129 0.0 0.0 0.00 0.00 0.00 89 1012.2
20260906035534 26 129 0.0 0.0 0.00 0.00 0.00 89 1012.2
20260906035030 26 129 0.0 0.0 0.00 0.00 0.00 89 1012.2
20260906034530 26 130 0.0 0.0 0.00 0.00 0.00 89 1012.4
20260906034025 26 130 0.0 0.0 0.00 0.00 0.00 89 1012.3
20260906033520 26 130 0.0 0.0 0.00 0.00 0.00 88 1012.5
20260906033016 26 130 0.0 0.0 0.00 0.00 0.00 88 1012.6
20260906032513 26 130 0.0 0.0 0.00 0.00 0.00 88 1012.7
20260906032012 26 130 0.0 0.0 0.00 0.00 0.00 87 1012.8
20260906031508 26 129 1.6 1.6 0.00 0.00 0.00 87 1012.9
20260906031003 26 131 0.0 0.0 0.00 0.00 0.00 87 1012.9
20260906030457 26 131 0.0 1.6 0.00 0.00 0.00 87 1012.6
20260906025957 26 131 0.0 0.0 0.00 0.00 0.00 87 1012.6
20260906025456 26 131 0.0 0.0 0.00 0.00 0.00 87 1012.6
20260906024955 26 138 0.0 0.0 0.00 0.00 0.00 87 1012.5
20260906024450 26 143 0.0 0.0 0.00 0.00 0.00 88 1012.1
20260906023950 26 143 0.0 0.0 0.00 0.00 0.00 87 1012.2
20260906023447 26 143 0.0 0.0 0.00 0.00 0.00 87 1012.0
20260906022947 26 143 0.0 0.0 0.00 0.00 0.00 87 1012.1
20260906022442 26 143 0.0 0.0 0.00 0.00 0.00 87 1012.0
20260906021938 26 143 0.0 0.0 0.00 0.00 0.00 87 1012.0
20260906021438 26 143 0.0 0.0 0.00 0.00 0.00 86 1011.7
20260906020932 26 142 0.0 0.0 0.00 0.00 0.00 86 1011.8
20260906020427 26 164 0.0 0.0 0.00 0.00 0.00 86 1011.7
20260906015927 26 166 0.0 0.0 0.00 0.00 0.00 86 1011.7
20260906015426 26 166 0.0 0.0 0.00 0.00 0.00 85 1011.7
20260906014926 26 167 0.0 0.0 0.00 0.00 0.00 86 1011.8
20260906014426 26 166 0.0 0.0 0.00 0.00 0.00 85 1011.5
20260906013923 26 167 0.0 0.0 0.00 0.00 0.00 86 1011.3
20260906013418 26 166 0.0 0.0 0.00 0.00 0.00 86 1011.3
20260906012914 26 166 0.0 0.0 0.00 0.00 0.00 85 1011.3
20260906012414 26 166 0.0 0.0 0.00 0.00 0.00 85 1011.1
20260906011913 26 169 0.0 0.0 0.00 0.00 0.00 85 1011.1
20260906011408 26 169 0.0 0.0 0.00 0.00 0.00 85 1011.0
20260906010909 26 168 0.0 0.0 0.00 0.00 0.00 85 1011.1
20260906010404 27 168 0.0 0.0 0.00 0.00 0.00 85 1010.9
20260906005900 27 169 0.0 0.0 0.00 0.00 0.00 85 1010.9
20260906005359 27 168 0.0 1.6 0.00 0.00 0.00 86 1010.9
20260906004859 27 162 0.0 0.0 0.00 0.00 0.00 86 1011.1
20260906004359 27 173 0.0 0.0 0.00 0.00 0.00 86 1011.1
20260906003854 27 173 0.0 0.0 0.00 0.00 0.00 85 1010.8
20260906003349 27 173 0.0 0.0 0.00 0.00 0.00 85 1010.9
20260906002845 27 173 0.0 0.0 0.00 0.00 0.00 85 1010.9
20260906002344 27 173 0.0 0.0 0.00 0.00 0.00 84 1010.7
20260906001840 27 189 0.0 0.0 0.00 0.00 0.00 84 1010.6
20260906001335 27 189 0.0 0.0 0.00 0.00 0.00 83 1010.8
20260906000830 27 189 0.0 0.0 0.00 0.00 0.00 83 1010.6
20260906000326 27 190 0.0 0.0 0.00 0.00 0.00 82 1010.7
20260905235825 27 166 0.0 0.0 0.00 0.00 0.00 82 1010.9
20260905235319 27 165 0.0 0.0 0.00 0.00 0.00 82 1010.8
20260905234815 27 167 0.0 1.6 0.00 0.00 0.00 81 1010.7
20260905234310 28 155 0.0 0.0 0.00 0.00 0.00 80 1010.9
20260905233805 28 155 0.0 0.0 0.00 0.00 0.00 79 1010.7
20260905233306 28 155 0.0 0.0 0.00 0.00 0.00 79 1010.9
20260905232804 28 154 0.0 0.0 0.00 0.00 0.00 78 1010.9
20260905232301 28 158 0.0 0.0 0.00 0.00 0.00 78 1010.9
20260905231756 28 157 0.0 0.0 0.00 0.00 0.00 77 1010.9
20260905231251 28 166 0.0 0.0 0.00 0.00 0.00 77 1010.9
20260905230748 28 166 0.0 0.0 0.00 0.00 0.00 76 1010.9
20260905230245 28 155 0.0 0.0 0.00 0.00 0.00 75 1010.9
20260905225745 28 181 0.0 0.0 0.00 0.00 0.00 75 1011.2
20260905225241 29 175 0.0 1.6 0.00 0.00 0.00 75 1010.9
20260905224739 29 153 0.0 0.0 0.00 0.00 0.00 73 1011.2
20260905224235 30 154 0.0 0.0 0.00 0.00 0.00 72 1011.3
20260905223731 30 153 0.0 0.0 0.00 0.00 0.00 72 1011.3
20260905223228 30 164 1.6 4.8 0.00 0.00 0.00 70 1011.2
20260905222723 30 166 1.6 3.2 0.00 0.00 0.00 69 1011.6
20260905222222 30 171 0.0 1.6 0.00 0.00 0.00 73 1011.5
20260905221718 29 169 0.0 1.6 0.00 0.00 0.00 76 1011.3
20260905221215 29 155 0.0 3.2 0.00 0.00 0.00 77 1011.5
20260905220711 29 159 1.6 1.6 0.00 0.00 0.00 80 1011.5
20260905220206 29 162 0.0 3.2 0.00 0.00 0.00 82 1011.4
20260905215706 29 127 0.0 1.6 0.00 0.00 0.00 81 1011.4
20260905215201 28 143 0.0 0.0 0.00 0.00 0.00 81 1011.1
20260905214657 28 148 0.0 1.6 0.00 0.00 0.00 83 1011.1
20260905214152 28 205 0.0 1.6 0.00 0.00 0.00 83 1011.1
20260905213648 28 155 1.6 4.8 0.00 0.00 0.00 83 1011.3
20260905213143 28 160 0.0 1.6 0.00 0.00 0.00 83 1011.1
20260905212638 28 150 1.6 3.2 0.00 0.00 0.00 83 1011.2
20260905212138 28 156 0.0 0.0 0.00 0.00 0.00 82 1011.5
20260905211632 28 151 0.0 1.6 0.00 0.00 0.00 83 1011.5
20260905211128 28 163 0.0 1.6 0.00 0.00 0.00 82 1011.7
20260905210625 28 161 0.0 0.0 0.00 0.00 0.00 82 1011.5
20260905210119 28 162 0.0 0.0 0.00 0.00 0.00 82 1011.7
20260905205618 28 162 0.0 1.6 0.00 0.00 0.00 78 1011.6
20260905205118 28 109 0.0 0.0 0.00 0.00 0.00 81 1011.6
20260905204617 28 123 0.0 1.6 0.00 0.00 0.00 83 1011.5
20260905204113 28 126 0.0 0.0 0.00 0.00 0.00 83 1011.2
20260905203613 28 164 0.0 0.0 0.00 0.00 0.00 82 1011.4
20260905203108 28 171 1.6 1.6 0.00 0.00 0.00 84 1011.7
20260905202604 28 179 0.0 0.0 0.00 0.00 0.00 85 1011.6
20260905202059 28 181 0.0 0.0 0.00 0.00 0.00 84 1012.0
20260905201555 28 175 0.0 0.0 0.00 0.00 0.00 86 1011.7
20260905201054 28 166 0.0 0.0 0.00 0.00 0.00 87 1011.9
20260905200549 28 105 0.0 1.6 0.00 0.00 0.00 87 1011.9
20260905200044 28 159 0.0 0.0 0.00 0.00 0.00 88 1011.9
20260905195538 28 160 0.0 3.2 0.00 0.00 0.00 85 1011.9
20260905195034 29 63 1.6 4.8 0.00 0.00 0.00 83 1012.1
20260905194533 30 48 4.8 11.3 0.00 0.00 0.00 78 1012.0
20260905194033 30 100 0.0 1.6 0.00 0.00 0.00 76 1012.1
20260905193527 30 121 0.0 1.6 0.00 0.00 0.00 75 1012.1
20260905193023 30 164 0.0 1.6 0.00 0.00 0.00 73 1012.1
20260905192518 30 186 0.0 1.6 0.00 0.00 0.00 74 1012.3
20260905192015 31 176 1.6 3.2 0.00 0.00 0.00 71 1012.4
20260905191513 31 129 0.0 0.0 0.00 0.00 0.00 72 1012.3
20260905191012 32 183 0.0 0.0 0.00 0.00 0.00 71 1012.5
20260905190510 33 218 1.6 4.8 0.00 0.00 0.00 65 1012.4
20260905190009 33 101 0.0 1.6 0.00 0.00 0.00 64 1012.3
20260905185505 33 131 0.0 0.0 0.00 0.00 0.00 64 1012.3
20260905185004 33 112 0.0 1.6 0.00 0.00 0.00 65 1012.1
20260905184458 34 163 0.0 3.2 0.00 0.00 0.00 61 1012.3
20260905183957 33 194 0.0 4.8 0.00 0.00 0.00 66 1012.3
20260905183451 33 263 0.0 1.6 0.00 0.00 0.00 63 1012.1
20260905182946 32 80 0.0 1.6 0.00 0.00 0.00 66 1012.5
20260905182446 31 150 1.6 1.6 0.00 0.00 0.00 67 1012.6
20260905181941 32 156 0.0 1.6 0.00 0.00 0.00 68 1012.5
20260905181440 32 62 1.6 3.2 0.00 0.00 0.00 66 1012.6
20260905180940 32 92 0.0 1.6 0.00 0.00 0.00 66 1012.5
20260905180435 33 34 0.0 1.6 0.00 0.00 0.00 63 1012.9
20260905175930 33 79 3.2 4.8 0.00 0.00 0.00 63 1012.8
20260905175429 33 204 0.0 3.2 0.00 0.00 0.00 64 1013.0
20260905174925 34 208 1.6 3.2 0.00 0.00 0.00 62 1013.0
20260905174420 33 193 1.6 1.6 0.00 0.00 0.00 62 1012.9
20260905173916 32 83 0.0 0.0 0.00 0.00 0.00 67 1013.1
20260905173412 31 128 0.0 1.6 0.00 0.00 0.00 67 1013.2
20260905172912 31 66 3.2 4.8 0.00 0.00 0.00 73 1013.2
20260905172410 31 121 3.2 4.8 0.00 0.00 0.00 72 1013.2
20260905171906 31 234 3.2 4.8 0.00 0.00 0.00 75 1013.3
20260905171403 30 148 3.2 3.2 0.00 0.00 0.00 77 1013.4
20260905170859 30 107 0.0 1.6 0.00 0.00 0.00 78 1013.5
20260905170355 30 140 0.0 1.6 0.00 0.00 0.00 77 1013.8
20260905165854 32 153 1.6 1.6 0.00 0.00 0.00 70 1013.7
20260905165350 33 37 1.6 4.8 0.00 0.00 0.00 68 1013.7
20260905164850 32 64 3.2 3.2 0.00 0.00 0.00 66 1013.6
20260905164345 32 173 0.0 3.2 0.00 0.00 0.00 68 1013.8
20260905163841 32 145 0.0 3.2 0.00 0.00 0.00 69 1013.8
20260905163337 33 173 0.0 0.0 0.00 0.00 0.00 69 1013.9
20260905162833 32 137 1.6 1.6 0.00 0.00 0.00 72 1013.9
20260905162332 31 176 0.0 1.6 0.00 0.00 0.00 73 1013.9
20260905161826 31 161 1.6 1.6 0.00 0.00 0.00 71 1014.0
20260905161326 31 133 0.0 1.6 0.00 0.00 0.00 71 1014.0
20260905160824 32 72 1.6 4.8 0.00 0.00 0.00 65 1014.1
20260905160319 32 75 0.0 1.6 0.00 0.00 0.00 67 1014.1
20260905155813 32 132 0.0 0.0 0.00 0.00 0.00 73 1014.0
20260905155312 32 170 0.0 0.0 0.00 0.00 0.00 73 1014.0
20260905154807 31 164 0.0 3.2 0.00 0.00 0.00 75 1014.0
20260905154302 30 157 0.0 1.6 0.00 0.00 0.00 74 1014.4
20260905153757 31 159 0.0 1.6 0.00 0.00 0.00 75 1014.1
20260905153253 31 132 0.0 0.0 0.00 0.00 0.00 75 1014.0
20260905152749 30 134 0.0 0.0 0.00 0.00 0.00 76 1014.3
20260905152248 30 132 0.0 1.6 0.00 0.00 0.00 75 1014.2
20260905151748 30 98 0.0 1.6 0.00 0.00 0.00 80 1014.4
20260905151244 30 166 0.0 1.6 0.00 0.00 0.00 81 1014.5
20260905150743 30 198 0.0 0.0 0.00 0.00 0.00 80 1014.4
20260905150243 29 130 0.0 0.0 0.00 0.00 0.00 82 1014.3
20260905145740 29 135 0.0 3.2 0.00 0.00 0.00 82 1014.4
20260905145236 28 157 1.6 1.6 0.00 0.00 0.00 82 1014.1
20260905144734 28 164 3.2 4.8 0.00 0.00 0.00 83 1014.3
20260905144230 28 175 0.0 0.0 0.00 0.00 0.00 85 1014.1
20260905143729 28 170 0.0 0.0 0.00 0.00 0.00 85 1014.2
20260905143229 28 150 0.0 0.0 0.00 0.00 0.00 87 1014.3
20260905142727 28 161 0.0 0.0 0.00 0.00 0.00 89 1014.2
20260905142222 27 154 0.0 0.0 0.00 0.00 0.00 88 1014.3
20260905141718 27 162 0.0 0.0 0.00 0.00 0.00 89 1014.3
20260905141214 27 170 0.0 0.0 0.00 0.00 0.00 89 1014.4
20260905140709 27 171 0.0 0.0 0.00 0.00 0.00 89 1014.7
20260905140208 27 177 0.0 0.0 0.00 0.00 0.00 90 1014.6
20260905135657 27 111 0.0 0.0 0.00 0.00 0.00 91 1014.7
20260905135154 27 111 0.0 0.0 0.00 0.00 0.00 92 1014.7
20260905134653 27 111 0.0 0.0 0.00 0.00 0.00 92 1014.7
20260905134152 27 112 0.0 0.0 0.00 0.00 0.00 95 1014.8
20260905133648 26 112 0.0 0.0 0.00 0.00 0.00 96 1014.7
20260905133147 26 116 0.0 0.0 0.00 0.00 0.00 97 1014.7
20260905132647 26 116 0.0 0.0 0.00 0.00 0.00 98 1014.6
20260905132142 26 116 0.0 0.0 0.00 0.00 0.00 98 1014.7